Weather in Yurasovka

Russia / Voronezh Oblast     50°29′24″N   39°11′02″E
temp.,
°C
wind,
m/s
gust,
m/s
humid.,
%
clouds,
%
prec.,
mm/h
press.,
hPa
HPBL,
m
27 november, sat
sat2700:00−3sse310917 0.0 1019193
03:00−3se39925 0.0 1017171
06:00−1se51287100 0.0 1016270
09:00+1sse71788100 0.0 1015474
12:00+3sse81876100 0.0 1012650
15:00+3sse91987100 2.6 1010631
18:00+3sse71682100 0.7 1009572
21:00+4s61387100 0.8 1009442
28 november, sun
sun2800:00+4s51193100 0.1 1008335
03:00+4s4109780 0.1 1009218
06:00+6s41098100 0.0 1008326
09:00+6s3898100 0.1 1009251
12:00+7ssw3895100 0.1 1010350
15:00+7ssw3692100 0.1 1011198
18:00+7s358943 0.0 1012102
21:00+5sse339362 0.0 101235
29 november, mon
mon2900:00+5se3595100 0.0 101282
03:00+7sse31397100 0.1 1010385
06:00+9se61698100 8.0 1008572
09:00+9sse91794100 12.8 1006637
12:00+9sse81688100 0.1 1005826
15:00+10sse91693100 1.3 1001728
18:00+11sse101983100 4.1 9981043
21:00+12s111982100 4.8 9951036
30 november, tue
tue3000:00+13ssw122084100 0.4 9921209
03:00+12sw101681100 2.3 9911124
06:00+8wsw916817 0.1 993770
09:00+6wsw81573100 0.1 996779
12:00+5wsw81365100 0.0 997924
15:00+5sw71362100 0.0 998834
18:00+3sw61366100 0.0 997620
21:00+2sw61368100 0.0 997603
1 december, wed
wed100:00+1wsw51173100 0.0 997526
03:000wsw61177100 0.0 997587
06:00−1w6128471 0.0 998712
09:00−1w71174100 0.0 1000892
12:00+1w7106484 0.0 10011135
15:00+1wsw6116214 0.0 10021194
18:000wsw61172100 0.0 1002917
21:00−1wsw7138983 0.1 1002735